NIEUW!!! Volg onze weer- en natuurfoto's op Instagram @ weerstationmaaseik.be

WS Maaseik 1 Meer informatie WS Maaseik 1


WS Maaseik 2 Meer informatie WS Maaseik 2


Regen radar Meer informatie rain snow radar


Bezoek onze andere website:

Vorige versie
weerstation Maaseik


Bezoek ook eens deze sites:

Weerstation Geleen

Weerstation Luyksgestel



Het weer levert geen direct gevaar op.    Er zijn geen waarschuwingen afgegeven.

Weather Underground Historische gegevens

Dagelijkse Samenvatting oktober 18, 2018 Eenheden:  Metrisch    Engels   Beide
« Vorige Dag
Volgende Dag »
Dagelijkse Wekelijkse Maandelijkse Jaarlijkse Aangepaste
  Huidig: Hoog: Laag: Gemiddeld:
Temperatuur: -8.4 °C -17.8 °C -11.4 °C -10.2 °C
Dauwpunt: -11.5 °C -17.8 °C -12.9 °C -12 °C
Vochtigheid: 70 % Humidity % 70 % 80 %
Wind snelheid: 25.9 km/h 0 km/h 5.1 km/h 18.7 km/h
Windvlaag: 46.7 km/h 0 km/h - -
Wind:NNW - - West
Luchtdruk: 35702 hPa 0 hPa 35702 hPa -
Neerslag: 0 mm      
Historical Graphs
 
 
Tabel voor oktober 18, 2018
Tijd Temperatuur Dauwpunt Luchtdruk Wind Wind snelheid Windvlaag Vochtigheid Regenval per uur
-17.8 °C -17.8 °C 0 hPa Calm     Humidity % 0 mm
00:04 -10.7 °C -12.7 °C 35702 hPa West 7.7 km/h 10.3 km/h 79 % 0 mm
00:09 -10.7 °C -12.7 °C 35702 hPa West 10.3 km/h 10.3 km/h 79 % 0 mm
00:14 -10.7 °C -12.7 °C 35702 hPa WNW 10.3 km/h 10.3 km/h 79 % 0 mm
00:19 -10.7 °C -12.7 °C 35702 hPa WNW 10.3 km/h 10.3 km/h 79 % 0 mm
00:24 -10.7 °C -12.6 °C 35702 hPa WNW 7.7 km/h 10.3 km/h 80 % 0 mm
00:29 -10.7 °C -12.6 °C 35702 hPa West 7.7 km/h 10.3 km/h 80 % 0 mm
00:34 -10.7 °C -12.6 °C 35702 hPa NW 5.1 km/h 10.3 km/h 80 % 0 mm
00:39 -10.7 °C -12.6 °C 35702 hPa NW 5.1 km/h 10.3 km/h 80 % 0 mm
00:44 -10.7 °C -12.6 °C 35702 hPa WNW 7.7 km/h 10.3 km/h 80 % 0 mm
00:49 -10.7 °C -12.4 °C 35702 hPa NW 7.7 km/h 7.7 km/h 81 % 0 mm
00:54 -10.7 °C -12.4 °C 35702 hPa NW 7.7 km/h 7.7 km/h 81 % 0 mm
01:00 -10.7 °C -12.4 °C 35702 hPa NW 7.7 km/h 7.7 km/h 81 % 0 mm
01:04 -10.6 °C -12.4 °C 35702 hPa NW 5.1 km/h 7.7 km/h 81 % 0 mm
01:09 -10.6 °C -12.4 °C 35702 hPa NW 10.3 km/h 7.7 km/h 81 % 0 mm
01:14 -10.6 °C -12.4 °C 35702 hPa NW 12.9 km/h 10.3 km/h 81 % 0 mm
01:19 -10.6 °C -12.4 °C 35702 hPa NW 12.9 km/h 10.3 km/h 81 % 0 mm
01:24 -10.6 °C -12.4 °C 35702 hPa NW 15.6 km/h 12.9 km/h 80 % 0 mm
01:29 -10.6 °C -12.3 °C 35702 hPa NW 15.6 km/h 12.9 km/h 81 % 0 mm
01:34 -10.4 °C -12.2 °C 35702 hPa NW 20.8 km/h 15.6 km/h 81 % 0 mm
01:39 -10.4 °C -12.2 °C 35702 hPa WNW 18.2 km/h 20.8 km/h 81 % 0 mm
01:44 -10.3 °C -12.1 °C 35702 hPa NNW 23.3 km/h 20.8 km/h 81 % 0 mm
01:49 -10.3 °C -12.1 °C 35702 hPa NW 18.2 km/h 23.3 km/h 81 % 0 mm
01:54 -10.3 °C -12.1 °C 35702 hPa NW 15.6 km/h 23.3 km/h 81 % 0 mm
01:59 -10.3 °C -12.1 °C 35702 hPa NW 15.6 km/h 23.3 km/h 81 % 0 mm
02:04 -10.3 °C -12.1 °C 35702 hPa NW 15.6 km/h 18.2 km/h 81 % 0 mm
02:09 -10.3 °C -12.1 °C 35702 hPa WNW 12.9 km/h 18.2 km/h 81 % 0 mm
02:14 -10.3 °C -12.1 °C 35702 hPa NW 12.9 km/h 15.6 km/h 81 % 0 mm
02:19 -10.2 °C -12 °C 35702 hPa NW 10.3 km/h 15.6 km/h 81 % 0 mm
02:24 -10.2 °C -12 °C 35702 hPa NW 12.9 km/h 15.6 km/h 81 % 0 mm
02:29 -10.2 °C -12 °C 35702 hPa NW 18.2 km/h 15.6 km/h 81 % 0 mm
02:34 -10.2 °C -11.9 °C 35702 hPa NW 10.3 km/h 15.6 km/h 81 % 0 mm
02:39 -10.2 °C -11.9 °C 35702 hPa NW 18.2 km/h 20.8 km/h 81 % 0 mm
02:44 -10.2 °C -11.9 °C 35702 hPa NW 12.9 km/h 20.8 km/h 81 % 0 mm
02:49 -10.2 °C -11.9 °C 35702 hPa NW 18.2 km/h 20.8 km/h 81 % 0 mm
02:54 -10.2 °C -11.9 °C 35702 hPa NW 15.6 km/h 18.2 km/h 81 % 0 mm
02:59 -10.2 °C -11.9 °C 35702 hPa NW 10.3 km/h 18.2 km/h 81 % 0 mm
03:04 -10.2 °C -11.9 °C 35702 hPa NW 23.3 km/h 23.3 km/h 81 % 0 mm
03:09 -10.2 °C -11.8 °C 35702 hPa NW 20.8 km/h 23.3 km/h 82 % 0 mm
03:14 -10.2 °C -11.8 °C 35702 hPa NW 15.6 km/h 23.3 km/h 82 % 0 mm
03:19 -10.2 °C -11.9 °C 35702 hPa NW 18.2 km/h 23.3 km/h 82 % 0 mm
03:24 -10.2 °C -11.9 °C 35702 hPa NW 12.9 km/h 20.8 km/h 82 % 0 mm
03:29 -10.2 °C -11.9 °C 35702 hPa NW 15.6 km/h 23.3 km/h 82 % 0 mm
03:34 -10.2 °C -11.9 °C 35702 hPa NW 15.6 km/h 23.3 km/h 82 % 0 mm
03:39 -10.2 °C -11.9 °C 35702 hPa NW 15.6 km/h 23.3 km/h 82 % 0 mm
03:44 -10.2 °C -11.9 °C 35702 hPa NW 18.2 km/h 20.8 km/h 82 % 0 mm
03:49 -10.2 °C -11.8 °C 35702 hPa NNW 12.9 km/h 20.8 km/h 82 % 0 mm
03:54 -10.2 °C -11.8 °C 35702 hPa NNW 15.6 km/h 20.8 km/h 82 % 0 mm
03:59 -10.2 °C -11.8 °C 35702 hPa NW 15.6 km/h 18.2 km/h 82 % 0 mm
04:04 -10.2 °C -11.8 °C 35702 hPa NNW 18.2 km/h 18.2 km/h 82 % 0 mm
04:09 -10.2 °C -11.8 °C 35702 hPa NNW 15.6 km/h 18.2 km/h 82 % 0 mm
04:14 -10.2 °C -11.8 °C 35702 hPa NNW 20.8 km/h 18.2 km/h 82 % 0 mm
04:19 -10.1 °C -11.8 °C 35702 hPa NW 15.6 km/h 20.8 km/h 82 % 0 mm
04:24 -10.1 °C -11.8 °C 35702 hPa NW 20.8 km/h 20.8 km/h 82 % 0 mm
04:29 -10.2 °C -11.9 °C 35702 hPa NNW 15.6 km/h 20.8 km/h 81 % 0 mm
04:34 -10.1 °C -11.8 °C 35702 hPa NNW 12.9 km/h 20.8 km/h 82 % 0 mm
04:39 -10.1 °C -11.9 °C 35702 hPa NNW 18.2 km/h 20.8 km/h 81 % 0 mm
04:44 -10.1 °C -11.8 °C 35702 hPa NNW 18.2 km/h 18.2 km/h 82 % 0 mm
04:49 -10.1 °C -11.8 °C 35702 hPa NNW 20.8 km/h 20.8 km/h 82 % 0 mm
04:54 -10.1 °C -11.9 °C 35702 hPa NW 12.9 km/h 20.8 km/h 81 % 0 mm
04:59 -10.1 °C -11.9 °C 35702 hPa NW 15.6 km/h 20.8 km/h 81 % 0 mm
05:04 -10.1 °C -11.9 °C 35702 hPa NW 15.6 km/h 20.8 km/h 81 % 0 mm
05:09 -10.1 °C -11.9 °C 35702 hPa NW 20.8 km/h 15.6 km/h 81 % 0 mm
05:14 -10.1 °C -11.9 °C 35702 hPa NNW 15.6 km/h 15.6 km/h 81 % 0 mm
05:19 -10.1 °C -11.9 °C 35702 hPa NNW 20.8 km/h 20.8 km/h 81 % 0 mm
05:24 -10.1 °C -11.8 °C 35702 hPa NNW 25.9 km/h 20.8 km/h 82 % 0 mm
05:29 -10.1 °C -11.8 °C 35702 hPa NNW 18.2 km/h 20.8 km/h 82 % 0 mm
05:34 -10.1 °C -11.9 °C 35702 hPa NW 12.9 km/h 25.9 km/h 81 % 0 mm
05:39 -10.1 °C -11.9 °C 35702 hPa NW 15.6 km/h 25.9 km/h 81 % 0 mm
05:44 -10.1 °C -11.9 °C 35702 hPa NW 18.2 km/h 23.3 km/h 81 % 0 mm
05:49 -10.1 °C -11.8 °C 35702 hPa NNW 15.6 km/h 23.3 km/h 82 % 0 mm
05:54 -10.1 °C -11.8 °C 35702 hPa NNW 18.2 km/h 23.3 km/h 82 % 0 mm
05:59 -10.1 °C -11.8 °C 35702 hPa NNW 20.8 km/h 23.3 km/h 82 % 0 mm
06:04 -10.1 °C -11.8 °C 35702 hPa NNW 23.3 km/h 23.3 km/h 82 % 0 mm
06:09 -10.1 °C -11.8 °C 35702 hPa NNW 15.6 km/h 23.3 km/h 82 % 0 mm
06:14 -10.1 °C -11.8 °C 35702 hPa NW 15.6 km/h 23.3 km/h 82 % 0 mm
06:19 -10.1 °C -11.8 °C 35702 hPa NW 15.6 km/h 23.3 km/h 82 % 0 mm
06:24 -10.1 °C -11.8 °C 35702 hPa NNW 18.2 km/h 23.3 km/h 82 % 0 mm
06:29 -10.1 °C -11.8 °C 35702 hPa NW 15.6 km/h 23.3 km/h 82 % 0 mm
06:34 -10.2 °C -11.8 °C 35702 hPa NNW 18.2 km/h 23.3 km/h 82 % 0 mm
06:39 -10.2 °C -11.8 °C 35702 hPa NNW 10.3 km/h 18.2 km/h 82 % 0 mm
06:44 -10.2 °C -11.8 °C 35702 hPa NNW 20.8 km/h 18.2 km/h 82 % 0 mm
06:49 -10.2 °C -11.8 °C 35702 hPa NW 12.9 km/h 20.8 km/h 82 % 0 mm
06:54 -10.2 °C -11.9 °C 35702 hPa NNW 15.6 km/h 20.8 km/h 82 % 0 mm
06:59 -10.2 °C -11.9 °C 35702 hPa North 15.6 km/h 20.8 km/h 82 % 0 mm
07:04 -10.2 °C -11.9 °C 35702 hPa NNW 12.9 km/h 15.6 km/h 82 % 0 mm
07:09 -10.3 °C -11.9 °C 35702 hPa NNW 15.6 km/h 15.6 km/h 82 % 0 mm
07:14 -10.3 °C -11.9 °C 35702 hPa NNW 15.6 km/h 15.6 km/h 82 % 0 mm
07:19 -10.3 °C -12 °C 35702 hPa NNW 15.6 km/h 18.2 km/h 82 % 0 mm
07:24 -10.4 °C -12.1 °C 35702 hPa NNW 15.6 km/h 18.2 km/h 82 % 0 mm
07:29 -10.5 °C -12.3 °C 35702 hPa NNW 18.2 km/h 18.2 km/h 81 % 0 mm
07:34 -10.6 °C -12.3 °C 35702 hPa NW 18.2 km/h 18.2 km/h 82 % 0 mm
07:39 -10.7 °C -12.3 °C 35702 hPa NNW 15.6 km/h 18.2 km/h 82 % 0 mm
07:44 -10.7 °C -12.2 °C 35702 hPa NW 15.6 km/h 20.8 km/h 83 % 0 mm
07:49 -10.8 °C -12.3 °C 35702 hPa NNW 12.9 km/h 20.8 km/h 83 % 0 mm
07:54 -10.8 °C -12.3 °C 35702 hPa NW 12.9 km/h 20.8 km/h 83 % 0 mm
07:59 -10.8 °C -12.4 °C 35702 hPa NW 10.3 km/h 20.8 km/h 83 % 0 mm
08:04 -10.9 °C -12.4 °C 35702 hPa NW 10.3 km/h 15.6 km/h 83 % 0 mm
08:09 -10.9 °C -12.5 °C 35702 hPa NW 15.6 km/h 12.9 km/h 83 % 0 mm
08:14 -11.1 °C -12.6 °C 35702 hPa WNW 12.9 km/h 12.9 km/h 83 % 0 mm
08:19 -11.1 °C -12.7 °C 35702 hPa NW 15.6 km/h 15.6 km/h 83 % 0 mm
08:24 -11.2 °C -12.7 °C 35702 hPa NW 15.6 km/h 15.6 km/h 83 % 0 mm
08:29 -11.2 °C -12.8 °C 35702 hPa NW 12.9 km/h 15.6 km/h 83 % 0 mm
08:34 -11.3 °C -12.8 °C 35702 hPa NW 12.9 km/h 15.6 km/h 83 % 0 mm
08:39 -11.3 °C -12.8 °C 35702 hPa NW 15.6 km/h 15.6 km/h 83 % 0 mm
08:44 -11.3 °C -12.9 °C 35702 hPa NW 15.6 km/h 15.6 km/h 83 % 0 mm
08:49 -11.4 °C -12.8 °C 35702 hPa NW 15.6 km/h 15.6 km/h 84 % 0 mm
08:54 -11.4 °C -12.8 °C 35702 hPa NW 12.9 km/h 18.2 km/h 84 % 0 mm
08:59 -11.4 °C -12.9 °C 35702 hPa NW 18.2 km/h 18.2 km/h 84 % 0 mm
09:04 -11.4 °C -12.9 °C 35702 hPa NW 18.2 km/h 18.2 km/h 84 % 0 mm
09:09 -11.4 °C -12.9 °C 35702 hPa NW 20.8 km/h 20.8 km/h 84 % 0 mm
09:14 -11.4 °C -12.8 °C 35702 hPa NW 25.9 km/h 20.8 km/h 85 % 0 mm
09:19 -11.4 °C -12.8 °C 35702 hPa NW 20.8 km/h 23.3 km/h 85 % 0 mm
09:24 -11.4 °C -12.8 °C 35702 hPa NNW 23.3 km/h 25.9 km/h 85 % 0 mm
09:29 -11.4 °C -12.7 °C 35702 hPa NNW 18.2 km/h 25.9 km/h 85 % 0 mm
09:34 -11.3 °C -12.6 °C 35702 hPa NNW 15.6 km/h 23.3 km/h 86 % 0 mm
09:39 -11.3 °C -12.6 °C 35702 hPa NNW 15.6 km/h 23.3 km/h 86 % 0 mm
09:44 -11.2 °C -12.5 °C 35702 hPa NNW 15.6 km/h 18.2 km/h 86 % 0 mm
09:49 -11.1 °C -12.4 °C 35702 hPa North 15.6 km/h 18.2 km/h 85 % 0 mm
09:54 -11.1 °C -12.4 °C 35702 hPa North 23.3 km/h 20.8 km/h 85 % 0 mm
09:59 -10.9 °C -12.3 °C 35702 hPa NNW 18.2 km/h 23.3 km/h 85 % 0 mm
10:04 -10.8 °C -12.2 °C 35702 hPa North 18.2 km/h 23.3 km/h 85 % 0 mm
10:09 -10.7 °C -12.1 °C 35702 hPa North 20.8 km/h 23.3 km/h 85 % 0 mm
10:14 -10.7 °C -12.1 °C 35702 hPa NNW 15.6 km/h 20.8 km/h 85 % 0 mm
10:19 -10.6 °C -12 °C 35702 hPa North 20.8 km/h 20.8 km/h 85 % 0 mm
10:24 -10.4 °C -11.8 °C 35702 hPa NNE 25.9 km/h 20.8 km/h 84 % 0 mm
10:29 -10.3 °C -11.9 °C 35702 hPa NW 20.8 km/h 20.8 km/h 83 % 0 mm
10:34 -10.3 °C -11.8 °C 35702 hPa NNW 20.8 km/h 25.9 km/h 83 % 0 mm
10:39 -10.2 °C -11.7 °C 35702 hPa NNE 25.9 km/h 28.5 km/h 83 % 0 mm
10:44 -10.1 °C -11.8 °C 35702 hPa NNE 25.9 km/h 28.5 km/h 82 % 0 mm
10:49 -10.1 °C -11.8 °C 35702 hPa NNE 33.6 km/h 31.1 km/h 82 % 0 mm
10:54 -10.1 °C -11.7 °C 35702 hPa NNE 28.5 km/h 31.1 km/h 82 % 0 mm
10:59 -10.1 °C -11.7 °C 35702 hPa NNE 12.9 km/h 33.6 km/h 82 % 0 mm
11:04 -9.9 °C -11.7 °C 35702 hPa NNE 15.6 km/h 33.6 km/h 81 % 0 mm
11:09 -9.9 °C -11.7 °C 35702 hPa NNE 20.8 km/h 33.6 km/h 81 % 0 mm
11:14 -9.7 °C -11.5 °C 35702 hPa NNE 20.8 km/h 20.8 km/h 81 % 0 mm
11:19 -9.6 °C -11.5 °C 35702 hPa NNE 28.5 km/h 23.3 km/h 80 % 0 mm
11:24 -9.4 °C -11.4 °C 35702 hPa NNE 28.5 km/h 28.5 km/h 79 % 0 mm
11:29 -9.3 °C -11.4 °C 35702 hPa NNE 28.5 km/h 31.1 km/h 78 % 0 mm
11:34 -9.2 °C -11.3 °C 35702 hPa North 33.6 km/h 31.1 km/h 78 % 0 mm
11:39 -9.2 °C -11.3 °C 35702 hPa NNE 25.9 km/h 33.6 km/h 78 % 0 mm
11:44 -9.2 °C -11.3 °C 35702 hPa NNE 20.8 km/h 33.6 km/h 78 % 0 mm
11:49 -9.3 °C -11.5 °C 35702 hPa NNW 20.8 km/h 33.6 km/h 77 % 0 mm
11:54 -9.4 °C -11.6 °C 35702 hPa NW 20.8 km/h 31.1 km/h 77 % 0 mm
11:59 -9.4 °C -11.6 °C 35702 hPa NNW 20.8 km/h 23.3 km/h 78 % 0 mm
12:04 -9.2 °C -11.3 °C 35702 hPa North 23.3 km/h 23.3 km/h 78 % 0 mm
12:09 -9.1 °C -11.3 °C 35702 hPa NNW 28.5 km/h 25.9 km/h 77 % 0 mm
12:14 -9.1 °C -11.3 °C 35702 hPa NNW 28.5 km/h 31.1 km/h 77 % 0 mm
12:19 -9.1 °C -11.4 °C 35702 hPa NNW 33.6 km/h 31.1 km/h 76 % 0 mm
12:24 -9.1 °C -11.4 °C 35702 hPa NNW 33.6 km/h 33.6 km/h 76 % 0 mm
12:29 -9.2 °C -11.5 °C 35702 hPa NNW 28.5 km/h 33.6 km/h 76 % 0 mm
12:34 -9 °C -11.3 °C 35702 hPa SE 28.5 km/h 36.2 km/h 76 % 0 mm
12:39 -8.7 °C -11.2 °C 35702 hPa NNE 33.6 km/h 36.2 km/h 75 % 0 mm
12:44 -8.4 °C -11.1 °C 35702 hPa NNE 25.9 km/h 36.2 km/h 74 % 0 mm
12:49 -8.4 °C -11.1 °C 35702 hPa North 36.2 km/h 33.6 km/h 73 % 0 mm
12:54 -8.7 °C -11.5 °C 35702 hPa North 36.2 km/h 33.6 km/h 72 % 0 mm
12:59 -8.8 °C -11.6 °C 35702 hPa NNW 41.4 km/h 38.8 km/h 72 % 0 mm
13:04 -8.8 °C -11.6 °C 35702 hPa NNW 38.8 km/h 38.8 km/h 72 % 0 mm
13:09 -8.9 °C -11.6 °C 35702 hPa NNW 28.5 km/h 41.4 km/h 73 % 0 mm
13:14 -8.8 °C -11.3 °C 35702 hPa NNW 31.1 km/h 41.4 km/h 74 % 0 mm
13:19 -8.7 °C -11.4 °C 35702 hPa NNW 31.1 km/h 41.4 km/h 73 % 0 mm
13:24 -8.7 °C -11.2 °C 35702 hPa NNW 23.3 km/h 38.8 km/h 74 % 0 mm
13:29 -8.5 °C -11.2 °C 35702 hPa NNW 38.8 km/h 38.8 km/h 73 % 0 mm
13:34 -8.4 °C -11.2 °C 35702 hPa NNE 23.3 km/h 41.4 km/h 72 % 0 mm
13:39 -8.1 °C -11.1 °C 35702 hPa NNE 36.2 km/h 41.4 km/h 71 % 0 mm
13:44 -8.3 °C -11.4 °C 35702 hPa NW 31.1 km/h 46.7 km/h 70 % 0 mm
13:49 -8.4 °C -11.4 °C 35702 hPa NNE 33.6 km/h 46.7 km/h 70 % 0 mm
13:54 -8.4 °C -11.5 °C 35702 hPa NNW 25.9 km/h 46.7 km/h 70 % 0 mm
Weerstation Maaseik (B)
Gegevens verzameld door Weather Underground - 3.5 mb

Script ontwikkeld door  Jim McMurry - jmcmurry@mwt.net Aangepast voor de template door  Wim van der Kuil - Leuven-Template.eu

U vindt ons ook hier:

Het Weer Aktueel

Weather Underground

AWEKAS